www.pogodaiklimat.ru

Погода и климат >> Архив погоды >> Австралия >> Квинсленд >> Хьюэнден


ПОГОДА в Хьюэндене

  • Прогноз погоды в Хьюэндене
  • Монитор погоды в Хьюэндене

АРХИВ ПОГОДЫ в Хьюэндене

Время (UTC), дата Ветер
(напр.,м/с)
 
Видим.   Явления Облачность Т
(С)
Тd
(С)
f
(%)
Тe
(С)
Тes
(С)
Комфортность P
(гПа)
Po
(гПа)
Тmin
(С)
Tmax
(С)
R
(мм)
R24
(мм)
S
(см)
20 15.08 В 3 н/о н/о +15.2 +10.8 75 +15 +15 1019.1 982.3
23 15.08 СВ 7 н/о н/о +21.8 +12.6 56 +24 +24 комфорт 1020.3 983.4
02 16.08 СВ 5 н/о н/о +27.2 +10.0 34 +28 +28 жарко 1018.6 981.8 +15.2
05 16.08 Ю 1 н/о н/о +27.7 +7.5 28 +27 +27 жарко 1015.9 979.2
08 16.08 СВ 2 н/о н/о +26.7 +7.2 29 +26 +26 жарко 1015.7 979.0
11 16.08 В 3 н/о н/о +21.9 +9.1 44 +23 +23 комфорт 1017.1 980.4
14 16.08 С 4 н/о н/о +16.5 +9.4 63 +16 +16 1017.0 980.3 +30.0
17 16.08 СВ 6 н/о н/о +18.3 +10.9 62 +18 +18 1016.3 979.6
20 16.08 СВ 4 н/о н/о +16.4 +12.4 77 +16 +16 1017.1 980.4
23 16.08 СВ 5 н/о н/о +21.6 +13.2 59 +24 +24 комфорт 1018.6 981.8
02 17.08 СВ 4 н/о н/о +27.9 +10.1 33 +28 +28 жарко 1017.1 980.4
05 17.08 ЮЗ 4 н/о н/о +30.9 +3.8 18 +29 +29 жарко 1013.7 977.1
08 17.08 З 3 н/о н/о +27.1 +2.9 21 +26 +26 жарко 1014.2 977.6
11 17.08 ЮВ 4 н/о н/о +22.0 +9.2 44 +23 +23 комфорт 1016.2 979.5
14 17.08 В 3 н/о н/о +20.2 +8.2 46 +22 +22 комфорт 1016.6 979.9
17 17.08 В 3 н/о н/о +18.7 +9.8 56 +19 +19 1016.3 979.6
20 17.08 В 4 н/о н/о +17.3 +10.9 66 +17 +17 1016.6 979.9
02 18.08 В 4 н/о н/о +30.0 +5.3 21 +28 +28 жарко 1016.6 979.9
05 18.08 Ю 3 н/о 1/0
[]
+30.8 +3.8 18 +29 +35 жарко 1013.9 977.3
08 18.08 ЮВ 3 н/о 1/0
[]
+28.1 +3.0 20 +26 +26 жарко 1014.1 977.5
11 18.08 0 н/о н/о +22.6 +5.5 33 1016.1 979.4
14 18.08 СВ 3 н/о н/о +19.1 +7.2 46 +20 +20 1016.3 979.6
17 18.08 0 н/о
20 18.08 0 н/о 1018.1 981.3
23 18.08 0 н/о н/о
02 19.08 Ю 5 н/о н/о +23.2 -0.3 21 +22 +22 комфорт 1019.8 983.0
05 19.08 Ю 6 н/о н/о +27.1 0.0 17 +25 +25 комфорт 1017.6 980.8
08 19.08 Ю 6 н/о н/о +23.8 -4.4 15 +22 +22 комфорт 1018.7 981.9
11 19.08 Ю 5 н/о н/о +18.6 -6.9 17 +18 +18 1021.6 984.7
14 19.08 Ю 5 н/о н/о +14.3 -7.1 22 +13 +13 1022.4 985.5
17 19.08 Ю 4 н/о н/о +11.9 -7.0 26 +11 +11 1021.5 984.6
20 19.08 штиль 0 н/о н/о +6.3 -5.6 42 +6 +6 1022.0 985.1
23 19.08 ЮВ 6 н/о н/о +16.1 -6.2 21 +15 +15 1024.2 987.2
02 20.08 ЮВ 5 н/о н/о +21.7 -5.2 16 +20 +20 1022.5 985.6
05 20.08 Ю 4 н/о н/о +24.0 -7.1 12 +22 +22 комфорт 1019.9 983.1
08 20.08 ЮВ 4 н/о н/о +21.0 -6.6 15 +21 +21 комфорт 1020.7 983.8
11 20.08 Ю 4 н/о н/о +13.8 -6.4 24 +13 +13 1022.4 985.5
14 20.08 ЮВ 4 н/о н/о +12.9 -7.7 23 +12 +12 1022.1 985.2 +25.3
17 20.08 ЮВ 1 н/о н/о +7.5 -6.2 37 +7 +7 1021.4 984.5
20 20.08 В 2 н/о н/о +6.8 -5.5 41 +5 +5 1021.5 984.6
23 20.08 В 7 н/о н/о +16.1 -8.9 17 +15 +15 1023.2 986.2
02 21.08 ЮВ 6 н/о н/о +22.8 -9.2 11 +21 +21 комфорт 1022.1 985.2 +4.2
05 21.08 ЮВ 5 н/о н/о +24.9 -11.6 8 +22 +22 комфорт 1019.0 982.2
08 21.08 ЮВ 3 н/о н/о +20.9 -11.8 10 +20 +20 1019.7 982.9
11 21.08 ЮВ 3 н/о н/о +12.6 -10.4 19 +12 +12 1021.1 984.2
14 21.08 ЮВ 3 н/о н/о +9.9 -9.2 25 +8 +8 1020.8 983.9 +26.0
17 21.08 В 3 н/о н/о +5.8 -9.2 33 +4 +4 1020.3 983.4
20 21.08 ЮВ 2 н/о н/о +5.9 -8.0 36 +5 +5 1020.7 983.8
23 21.08 ЮВ 7 н/о н/о +18.6 -7.7 16 +18 +18 1022.0 985.1
02 22.08 В 5 н/о н/о +23.7 -8.5 11 +21 +21 комфорт 1020.0 983.2 +4.7
05 22.08 ЮВ 4 н/о н/о +26.4 -9.0 9 +23 +23 комфорт 1017.0 980.3
08 22.08 Ю 3 н/о н/о +22.8 -10.4 10 +20 +20 1017.9 981.1
11 22.08 С 2 н/о н/о +11.1 -9.8 22 +11 +11 1019.3 982.5
14 22.08 ЮВ 3 н/о н/о +7.5 -7.7 33 +6 +6 1019.1 982.3 +27.6
17 22.08 ЮВ 2 н/о н/о +9.8 -4.2 37 +9 +9 1018.5 981.7

 

Местоположение метеостанции Хьюэнден (Квинсленд, Австралия): широта -20.82 долгота 144.23 высота над уровнем моря 316 м.

В архиве по умолчанию представлена погода в Хьюэндене за последнюю неделю. Архивные данные за месяц целиком и за предыдущие месяцы, начиная с января 2011 года, Вы можете получить, выбрав интересующий диапазон дат из раскрывающегося списка и нажав кнопку "Ввод!".


*Определитесь, кто Вы:
робот инопланетянин человек

Внимание! Время в таблицах - всемирное. Для получения местного времени необходимо прибавить поправку, которая равна 10 ч.

Смотрите также архив погоды в соседних городах и на ближайших метеорологических станциях:

Погода в Ричмонд аэропорту (Квинсленд, Австралия) (117 км)
Погода в Уинтоне (Квинсленд, Австралия) (209 км)
Погода в Джулия Крик (Квинсленд, Австралия) (261 км)
Погода в Вулшеде (Квинсленд, Австралия) (286 км)
Погода в Джорджтауне (Квинсленд, Австралия) (290 км)
Погода в Лонгриче (Квинсленд, Австралия) (290 км)
Погода в Таунсвилле (Квинсленд, Австралия) (317 км)
Погода в Лусинде (Квинсленд, Австралия) (342 км)
Погода в Эре (Квинсленд, Австралия) (355 км)
Погода в Аэропорту Трепелл (Квинсленд, Австралия) (365 км)

Пояснения к столбцам:

Ветер - указаны скорость ветра в м/с - средняя за 10 мин, порывы в срок и между сроками (в фигурных скобках) и направление, откуда дует ветер: С - северный, СВ - северо-восточный, В - восточный, ЮВ - юго-восточный, Ю - южный, ЮЗ - юго-западный, З - западный, СЗ - северо-западный.
Видимость - горизонтальная дальность видимости в метрах или километрах. При видимости от 1 до 10 км при отсутствии осадков обычно наблюдается дымка, при ухудшении видимости до 1 км и менее - туман. В сухую погоду видимость может ухудшаться дымом, пылью или мглою.
Явления - указаны атмосферные явления, наблюдавшиеся в срок или в последний час перед сроком; фигурными скобками обозначены явления, наблюдавшиеся между сроками (за 1-3 часа до срока); квадратными скобками обозначены град или гололедные отложения с указанием их диаметра в мм.
Облачность - указаны через наклонную черту общая и нижняя облачность в баллах и высота нижней границы облаков в метрах; квадратными скобками обозначены формы облаков: Ci - перистые, Cs - перисто-слоистые, Cc - перисто-кучевые, Ac - высококучевые, As - высокослоистые, Sc - слоисто-кучевые, Ns - слоисто-дождевые, Cu - кучевые, Cb - кучево-дождевые. Подробнее классификацию облаков см. в Атласе облаков (PDF).
T - Температура воздуха - температура, измеренная на высоте 2 м над землей.
Td - Температура точки росы - температура, при понижении до которой содержащийся в воздухе водяной пар достигнет насыщения.
f - Относительная влажность воздуха - влажноcть воздуха, измеренная на высоте 2 м над землей.
Te - Эффективная температура - температура, которую ощущает одетый по сезону человек в тени. Характеристика душности погоды. При расчете учитывается влияние влажности воздуха и скорости ветра на теплоощущения человека.
Tes - Эффективная температура на солнце - температура, которую ощущает человек, с поправкой на солнечный нагрев. Характеристика знойности погоды. Зависит от высоты солнца над горизонтом, облачности и скорости ветра. Ночью, в пасмурную погоду, а также при ветре 12 м/с и более поправка равна нулю.
P - Атмосферное давление - приведенное к уровню моря атмосферное давление.
Po - Атмосферное давление - измеренное на уровне метеостанции атмосферное давление.
Tmin - Минимальная температура - минимум температуры воздуха на высоте 2 м над землей.
Tmax - Максимальная температура - максимум температуры воздуха на высоте 2 м над землей.
R - Количество осадков - Количество выпавших осадков за период времени, мм. При наведении курсора мыши на число - период времени, за который выпало указанное количество осадков.
R24 - Количество осадков - Количество выпавших осадков за 24 часа, мм.
S - Снежный покров - Высота снежного покрова, см. При наведении курсора мыши на число - состояние снежного покрова и степень покрытия местности в баллах.